Total_Precipitation_Accumulation
1.59 2.00 2.17 2.25 2.56 2.80 2.98 2.96 3.12 3.46 3.70 4.06 4.06 4.29 4.73 5.09 5.22 5.33 5.32 5.23 5.13 5.12 4.97 4.79 4.87 4.72 4.50 4.26 4.15 4.12 4.00 3.64 3.49 3.45 3.07 2.51 2.13 1.97 1.83 1.82 1.82 1.70 1.71
1.47 1.93 2.14 2.44 2.66 2.80 3.06 3.21 3.32 3.73 4.23 4.78 5.29 5.70 6.05 6.05 6.17 6.12 6.01 5.72 5.52 5.39 5.21 5.18 5.02 4.79 4.62 4.38 4.19 4.11 4.00 3.66 3.57 3.59 3.52 2.84 2.33 1.83 1.46 1.56 1.58 1.54 1.60
1.57 1.78 2.01 2.32 2.57 2.79 3.06 3.24 3.54 4.14 4.96 5.49 5.96 6.53 6.87 6.59 6.32 6.03 5.96 5.88 5.80 5.67 5.50 5.44 5.18 4.94 4.66 4.33 4.07 3.93 3.81 3.68 3.63 3.52 3.62 3.12 2.51 2.02 1.63 1.45 1.35 1.39 1.54
1.59 1.78 1.98 2.24 2.53 2.87 3.00 3.19 3.75 4.46 5.13 5.68 6.30 6.91 7.20 7.26 7.06 6.50 6.01 5.59 5.30 5.08 4.93 4.88 4.70 4.51 4.24 4.00 3.73 3.63 3.56 3.66 3.49 3.41 3.24 2.99 2.64 2.38 2.02 1.70 1.49 1.41 1.43
1.54 1.70 1.87 2.08 2.21 2.56 3.03 3.35 3.91 4.59 5.24 5.97 6.70 7.16 7.39 7.40 7.02 6.24 5.48 4.94 4.60 4.32 4.08 4.01 3.91 3.77 3.58 3.40 3.32 3.32 3.27 3.24 3.09 2.94 2.90 2.89 2.82 2.53 2.21 1.91 1.65 1.55 1.47
1.39 1.43 1.63 1.81 2.10 2.45 2.84 3.32 3.64 4.24 4.92 5.52 6.10 6.30 6.45 6.39 5.99 5.57 5.08 4.65 4.12 3.66 3.31 3.16 3.07 2.94 2.84 2.84 2.86 2.90 2.87 2.87 2.83 2.74 2.63 2.54 2.54 2.39 2.29 2.03 1.81 1.78 1.66
1.34 1.54 1.81 1.80 2.05 2.33 2.71 3.15 3.54 3.91 4.43 4.97 5.46 5.70 5.85 5.73 5.25 4.80 4.35 3.92 3.41 3.03 2.75 2.58 2.53 2.43 2.38 2.38 2.50 2.58 2.52 2.48 2.50 2.48 2.39 2.34 2.28 2.21 2.19 2.24 2.08 1.82 1.59
1.43 1.53 1.66 1.74 2.03 2.25 2.49 2.88 3.20 3.56 3.79 4.03 4.40 4.65 4.80 4.66 4.32 3.85 3.37 3.05 2.76 2.47 2.30 2.18 2.11 2.02 1.94 1.92 2.05 2.17 2.23 2.20 2.23 2.24 2.31 2.24 2.13 2.07 2.01 2.07 2.16 2.08 1.86
1.27 1.40 1.57 1.68 1.87 2.17 2.51 2.76 2.88 3.09 3.27 3.47 3.55 3.54 3.64 3.55 3.30 3.02 2.71 2.42 2.16 1.90 1.78 1.73 1.70 1.64 1.61 1.67 1.80 1.87 1.83 1.85 1.91 2.01 2.12 2.12 2.10 2.08 2.01 2.06 2.14 2.22 2.15
1.26 1.29 1.44 1.62 1.70 1.78 2.10 2.40 2.46 2.57 2.67 2.76 2.80 2.72 2.76 2.66 2.59 2.43 2.20 1.94 1.80 1.59 1.50 1.46 1.46 1.45 1.43 1.47 1.52 1.62 1.64 1.61 1.62 1.75 1.89 1.97 2.00 2.09 2.13 2.21 2.24 2.24 2.24
1.39 1.36 1.41 1.48 1.58 1.71 1.86 2.08 2.24 2.25 2.30 2.43 2.39 2.27 2.32 2.31 2.27 2.15 1.99 1.85 1.78 1.65 1.52 1.42 1.45 1.45 1.40 1.38 1.42 1.41 1.46 1.51 1.52 1.57 1.66 1.76 1.80 1.90 1.94 2.00 2.03 2.12 2.17
1.36 1.32 1.29 1.26 1.34 1.54 1.75 1.92 2.02 2.02 2.05 2.11 2.18 2.24 2.24 2.16 2.06 1.88 1.75 1.61 1.49 1.36 1.30 1.27 1.31 1.30 1.23 1.22 1.20 1.16 1.19 1.26 1.34 1.40 1.45 1.54 1.56 1.62 1.62 1.72 1.78 1.80 1.87
1.49 1.38 1.27 1.23 1.27 1.38 1.49 1.65 1.85 1.95 1.95 1.92 1.91 2.02 2.03 1.91 1.77 1.63 1.56 1.47 1.35 1.28 1.28 1.24 1.21 1.18 1.11 1.05 1.01 1.02 1.02 1.01 1.09 1.18 1.21 1.26 1.30 1.30 1.28 1.35 1.37 1.46 1.56
1.58 1.38 1.31 1.26 1.28 1.36 1.38 1.43 1.56 1.74 1.86 1.95 2.03 1.98 1.88 1.79 1.73 1.54 1.35 1.27 1.18 1.23 1.29 1.22 1.14 1.04 0.98 0.93 0.96 0.98 0.96 0.94 0.96 0.98 1.01 1.00 1.00 1.00 1.02 1.04 1.10 1.23 1.46
1.45 1.31 1.31 1.38 1.36 1.34 1.32 1.35 1.50 1.60 1.82 1.93 1.91 1.84 1.75 1.70 1.68 1.60 1.44 1.28 1.15 1.11 1.17 1.09 1.03 0.97 0.87 0.82 0.84 0.87 0.88 0.87 0.86 0.87 0.87 0.82 0.83 0.87 0.85 0.81 0.91 1.10 1.34
1.34 1.27 1.27 1.36 1.32 1.28 1.25 1.22 1.33 1.39 1.53 1.67 1.66 1.58 1.55 1.59 1.54 1.51 1.40 1.30 1.19 1.12 1.13 1.08 0.98 0.87 0.74 0.77 0.77 0.72 0.75 0.82 0.87 0.85 0.76 0.69 0.70 0.71 0.71 0.72 0.81 0.94 1.05
1.54 1.55 1.57 1.56 1.44 1.32 1.26 1.28 1.34 1.38 1.45 1.52 1.45 1.45 1.45 1.41 1.39 1.25 1.18 1.21 1.24 1.15 1.08 0.98 0.87 0.81 0.76 0.70 0.66 0.70 0.76 0.82 0.88 0.88 0.86 0.73 0.61 0.68 0.73 0.74 0.77 0.82 0.87
1.86 1.87 1.80 1.65 1.50 1.38 1.34 1.35 1.34 1.40 1.48 1.45 1.38 1.31 1.33 1.28 1.24 1.21 1.16 1.16 1.16 1.11 1.06 0.97 0.86 0.78 0.71 0.68 0.66 0.68 0.69 0.79 0.82 0.82 0.83 0.84 0.81 0.77 0.80 0.77 0.79 0.83 0.88
1.87 1.78 1.69 1.60 1.48 1.36 1.32 1.28 1.28 1.27 1.28 1.24 1.20 1.11 1.14 1.20 1.21 1.18 1.21 1.17 1.09 1.04 0.98 0.92 0.88 0.83 0.73 0.67 0.63 0.65 0.71 0.77 0.73 0.66 0.67 0.68 0.68 0.67 0.72 0.79 0.87 0.89 0.89
1.51 1.55 1.54 1.46 1.36 1.27 1.18 1.14 1.17 1.16 1.13 1.11 1.10 1.01 1.02 1.08 1.16 1.17 1.17 1.07 0.99 0.95 0.85 0.83 0.86 0.85 0.80 0.68 0.59 0.61 0.63 0.68 0.67 0.63 0.62 0.61 0.57 0.55 0.53 0.62 0.81 0.95 0.92
1.30 1.31 1.43 1.45 1.29 1.09 1.03 1.08 1.06 1.05 0.94 0.92 0.99 1.00 0.99 1.01 1.01 1.03 1.06 1.01 0.92 0.88 0.86 0.86 0.87 0.86 0.79 0.66 0.56 0.55 0.54 0.56 0.59 0.63 0.64 0.63 0.54 0.46 0.45 0.53 0.68 0.76 0.73
1.18 1.19 1.30 1.25 1.08 0.97 0.99 1.06 1.03 0.91 0.85 0.92 1.04 1.04 1.01 0.90 0.88 1.00 1.05 0.98 0.91 0.84 0.85 0.85 0.85 0.85 0.81 0.67 0.57 0.53 0.51 0.51 0.54 0.58 0.58 0.55 0.50 0.42 0.44 0.47 0.55 0.58 0.67
1.02 1.03 1.09 1.06 1.00 0.96 1.02 1.07 1.01 0.87 0.90 0.99 1.05 1.07 1.00 0.96 0.94 0.97 0.97 0.92 0.87 0.79 0.77 0.78 0.80 0.77 0.69 0.61 0.54 0.50 0.46 0.46 0.49 0.50 0.50 0.49 0.51 0.51 0.57 0.59 0.57 0.63 0.83
0.90 0.91 0.97 0.97 0.94 0.89 0.90 0.91 0.84 0.82 0.93 1.02 1.00 1.00 1.02 1.01 0.94 0.87 0.82 0.79 0.76 0.71 0.68 0.69 0.69 0.65 0.61 0.53 0.45 0.44 0.45 0.45 0.49 0.49 0.54 0.62 0.68 0.70 0.71 0.74 0.80 0.85 0.92
0.86 0.89 0.97 0.97 0.86 0.81 0.78 0.76 0.78 0.84 0.95 0.95 0.89 0.87 0.90 0.89 0.84 0.72 0.65 0.62 0.55 0.48 0.48 0.49 0.51 0.50 0.48 0.45 0.41 0.41 0.44 0.41 0.44 0.48 0.61 0.79 0.85 0.87 0.83 0.79 0.80 0.84 0.86
0.80 0.85 0.85 0.85 0.81 0.72 0.69 0.71 0.74 0.74 0.84 0.84 0.79 0.75 0.78 0.76 0.70 0.65 0.58 0.51 0.38 0.35 0.32 0.31 0.33 0.33 0.36 0.36 0.32 0.36 0.39 0.38 0.44 0.51 0.74 0.86 0.88 0.89 0.79 0.73 0.69 0.69 0.72